When you browse on this site, cookies collect data to enhance your experience and personalize the content and advertising you see.
Visit our Privacy Policy to learn more. By continuing to use the site, you agree to this use of cookies and data.
  • In United Kingdom
  • List of Countries
  • For 7 days
  • Water Temperature
  • Weather Map
  • Weather Widgets
  • user-avatar
    Login

    Hourly Weather Lowech

    Today, 14 October, Monday

    Time Temperature Precipitation Wind Pressure Humidity
    00:00 +18°C° 0 mm 1 mps 741 mmHg 56%
    01:00 +18°C° 0 mm 1 mps 741 mmHg 55%
    02:00 +18°C° 0 mm 1 mps 742 mmHg 56%
    03:00 +16°C° 0 mm 1 mps 741 mmHg 57%
    04:00 +16°C° 0 mm 1 mps 741 mmHg 58%
    05:00 +15°C° 0 mm 0 mps 741 mmHg 59%
    06:00 +16°C° 0 mm 0 mps 741 mmHg 58%
    07:00 +17°C° 0 mm 0 mps 741 mmHg 56%
    08:00 +20°C° 0 mm 1 mps 742 mmHg 55%
    09:00 +22°C° 0 mm 1 mps 742 mmHg 49%
    10:00 +24°C° 0 mm 1 mps 741 mmHg 42%
    11:00 +26°C° 0 mm 1 mps 741 mmHg 36%
    12:00 +27°C° 0 mm 1 mps 741 mmHg 34%
    13:00 +27°C° 0 mm 2 mps 741 mmHg 32%
    14:00 +28°C° 0 mm 2 mps 740 mmHg 30%
    15:00 +27°C° 0 mm 2 mps 740 mmHg 33%
    16:00 +26°C° 0 mm 2 mps 740 mmHg 35%
    17:00 +25°C° 0 mm 2 mps 739 mmHg 38%
    18:00 +23°C° 0 mm 2 mps 739 mmHg 40%
    19:00 +22°C° 0 mm 1 mps 740 mmHg 42%
    20:00 +20°C° 0 mm 1 mps 740 mmHg 44%
    21:00 +19°C° 0 mm 1 mps 740 mmHg 45%
    22:00 +19°C° 0 mm 1 mps 740 mmHg 45%
    23:00 +18°C° 0 mm 1 mps 739 mmHg 45%

    Tomorrow, 15 October, Tuesday

    Time Temperature Precipitation Wind Pressure Humidity
    00:00 +18°C° 0 mm 1 mps 739 mmHg 44%
    01:00 +18°C° 0 mm 1 mps 739 mmHg 44%
    02:00 +18°C° 0 mm 1 mps 739 mmHg 44%
    03:00 +16°C° 0 mm 1 mps 739 mmHg 44%
    04:00 +16°C° 0 mm 1 mps 739 mmHg 44%
    05:00 +16°C° 0 mm 1 mps 738 mmHg 44%
    06:00 +18°C° 0 mm 1 mps 739 mmHg 44%
    07:00 +16°C° 0 mm 0 mps 739 mmHg 44%
    08:00 +17°C° 0 mm 0 mps 739 mmHg 43%
    09:00 +22°C° 0 mm 1 mps 739 mmHg 38%
    10:00 +24°C° 0 mm 1 mps 739 mmHg 34%
    11:00 +26°C° 0 mm 1 mps 739 mmHg 29%
    12:00 +27°C° 0 mm 2 mps 738 mmHg 27%
    13:00 +27°C° 0 mm 2 mps 738 mmHg 25%
    14:00 +28°C° 0 mm 2 mps 738 mmHg 23%
    15:00 +27°C° 0 mm 2 mps 737 mmHg 26%
    16:00 +26°C° 0 mm 2 mps 737 mmHg 29%
    17:00 +25°C° 0 mm 2 mps 736 mmHg 32%
    18:00 +23°C° 0 mm 2 mps 737 mmHg 35%
    19:00 +21°C° 0 mm 1 mps 737 mmHg 38%
    20:00 +19°C° 0 mm 1 mps 737 mmHg 41%
    21:00 +19°C° 0 mm 1 mps 737 mmHg 42%
    22:00 +18°C° 0 mm 1 mps 737 mmHg 43%
    23:00 +18°C° 0 mm 1 mps 737 mmHg 43%

    Day after tomorrow, 16 October, Wednesday

    Time Temperature Precipitation Wind Pressure Humidity
    00:00 +18°C° 0 mm 1 mps 737 mmHg 44%
    01:00 +16°C° 0 mm 1 mps 737 mmHg 44%
    02:00 +16°C° 0 mm 1 mps 737 mmHg 44%
    03:00 +16°C° 0 mm 1 mps 737 mmHg 44%
    04:00 +15°C° 0 mm 1 mps 737 mmHg 44%
    05:00 +14°C° 0 mm 0 mps 737 mmHg 44%
    06:00 +15°C° 0 mm 0 mps 737 mmHg 44%
    07:00 +16°C° 0 mm 0 mps 737 mmHg 45%
    08:00 +16°C° 0 mm 0 mps 738 mmHg 45%
    09:00 +20°C° 0 mm 1 mps 738 mmHg 41%
    10:00 +22°C° 0 mm 1 mps 738 mmHg 36%
    11:00 +24°C° 0 mm 1 mps 738 mmHg 32%
    12:00 +25°C° 0 mm 1 mps 738 mmHg 30%
    13:00 +26°C° 0 mm 2 mps 737 mmHg 29%
    14:00 +27°C° 0 mm 2 mps 737 mmHg 27%
    15:00 +26°C° 0 mm 1 mps 737 mmHg 30%
    16:00 +25°C° 0 mm 1 mps 737 mmHg 34%
    17:00 +24°C° 0 mm 1 mps 737 mmHg 37%
    18:00 +22°C° 0 mm 1 mps 737 mmHg 40%
    19:00 +21°C° 0 mm 1 mps 737 mmHg 44%
    20:00 +19°C° 0 mm 1 mps 737 mmHg 47%
    21:00 +19°C° 0 mm 1 mps 737 mmHg 48%
    22:00 +18°C° 0 mm 1 mps 738 mmHg 49%
    23:00 +18°C° 0 mm 1 mps 738 mmHg 50%

    17 October, Thursday

    Time Temperature Precipitation Wind Pressure Humidity
    00:00 +16°C° 0 mm 1 mps 738 mmHg 51%
    01:00 +16°C° 0 mm 1 mps 738 mmHg 52%
    02:00 +16°C° 0 mm 1 mps 738 mmHg 53%
    03:00 +15°C° 0 mm 1 mps 738 mmHg 54%
    04:00 +15°C° 0 mm 1 mps 738 mmHg 55%
    05:00 +15°C° 0 mm 1 mps 738 mmHg 56%
    06:00 +15°C° 0 mm 1 mps 738 mmHg 55%
    07:00 +16°C° 0 mm 1 mps 738 mmHg 53%
    08:00 +16°C° 0 mm 0 mps 738 mmHg 52%
    09:00 +20°C° 0 mm 1 mps 738 mmHg 47%
    10:00 +22°C° 0 mm 1 mps 739 mmHg 42%
    11:00 +24°C° 0 mm 1 mps 739 mmHg 36%
    12:00 +25°C° 0 mm 1 mps 738 mmHg 35%
    13:00 +25°C° 0 mm 1 mps 738 mmHg 33%
    14:00 +26°C° 0 mm 1 mps 738 mmHg 31%
    15:00 +25°C° 0 mm 1 mps 738 mmHg 35%
    16:00 +24°C° 0 mm 1 mps 737 mmHg 38%
    17:00 +23°C° 0 mm 1 mps 737 mmHg 41%
    18:00 +22°C° 0 mm 1 mps 737 mmHg 44%
    19:00 +21°C° 0 mm 1 mps 738 mmHg 47%
    20:00 +19°C° 0 mm 1 mps 738 mmHg 49%
    21:00 +19°C° 0 mm 1 mps 738 mmHg 51%
    22:00 +18°C° 0 mm 1 mps 738 mmHg 52%
    23:00 +18°C° 0 mm 1 mps 738 mmHg 53%

    18 October, Friday

    Time Temperature Precipitation Wind Pressure Humidity
    00:00 +16°C° 0 mm 1 mps 738 mmHg 54%
    01:00 +16°C° 0 mm 1 mps 738 mmHg 54%
    02:00 +16°C° 0 mm 1 mps 738 mmHg 55%
    03:00 +14°C° 0 mm 0 mps 738 mmHg 56%
    04:00 +14°C° 0 mm 0 mps 738 mmHg 56%
    05:00 +14°C° 0 mm 0 mps 739 mmHg 57%
    06:00 +15°C° 0 mm 0 mps 739 mmHg 56%
    07:00 +15°C° 0 mm 0 mps 739 mmHg 55%
    08:00 +16°C° 0 mm 0 mps 739 mmHg 53%
    09:00 +20°C° 0 mm 1 mps 739 mmHg 48%
    10:00 +22°C° 0 mm 1 mps 739 mmHg 42%
    11:00 +24°C° 0 mm 1 mps 739 mmHg 36%
    12:00 +24°C° 0 mm 1 mps 739 mmHg 35%
    13:00 +25°C° 0 mm 2 mps 738 mmHg 33%
    14:00 +26°C° 0 mm 2 mps 738 mmHg 31%
    15:00 +25°C° 0 mm 2 mps 738 mmHg 34%
    16:00 +24°C° 0 mm 1 mps 738 mmHg 37%
    17:00 +23°C° 0 mm 1 mps 737 mmHg 39%
    18:00 +21°C° 0 mm 1 mps 738 mmHg 42%
    19:00 +20°C° 0 mm 1 mps 738 mmHg 45%
    20:00 +19°C° 0 mm 1 mps 738 mmHg 48%
    21:00 +18°C° 0 mm 1 mps 738 mmHg 50%
    22:00 +18°C° 0 mm 1 mps 738 mmHg 51%
    23:00 +16°C° 0 mm 1 mps 738 mmHg 53%

    19 October, Saturday

    Time Temperature Precipitation Wind Pressure Humidity
    00:00 +16°C° 0 mm 1 mps 738 mmHg 54%
    01:00 +16°C° 0 mm 1 mps 738 mmHg 55%
    02:00 +15°C° 0 mm 1 mps 738 mmHg 56%
    03:00 +15°C° 0 mm 1 mps 738 mmHg 57%
    04:00 +14°C° 0 mm 0 mps 738 mmHg 57%
    05:00 +14°C° 0 mm 0 mps 738 mmHg 58%
    06:00 +14°C° 0 mm 0 mps 738 mmHg 57%
    07:00 +15°C° 0 mm 0 mps 738 mmHg 55%
    08:00 +16°C° 0 mm 0 mps 738 mmHg 54%
    09:00 +20°C° 0 mm 1 mps 738 mmHg 48%
    10:00 +22°C° 0 mm 1 mps 738 mmHg 43%
    11:00 +24°C° 0 mm 1 mps 738 mmHg 37%
    12:00 +25°C° 0 mm 2 mps 738 mmHg 34%
    13:00 +26°C° 0 mm 2 mps 738 mmHg 32%
    14:00 +27°C° 0 mm 2 mps 737 mmHg 29%
    15:00 +25°C° 0 mm 2 mps 737 mmHg 31%
    16:00 +24°C° 0 mm 2 mps 737 mmHg 33%
    17:00 +23°C° 0 mm 2 mps 737 mmHg 35%
    18:00 +21°C° 0 mm 2 mps 737 mmHg 38%
    19:00 +20°C° 0 mm 1 mps 737 mmHg 41%
    20:00 +19°C° 0 mm 1 mps 737 mmHg 44%
    21:00 +18°C° 0 mm 1 mps 737 mmHg 46%
    22:00 +18°C° 0 mm 1 mps 737 mmHg 48%
    23:00 +16°C° 0 mm 1 mps 738 mmHg 50%
    Show more